Вернуться в каталог

FENGYUN 1C DEB

LostPO
NORAD 31063·DEBRIS·🇨🇳 China

Запущен May 10, 1999 с Taiyuan Satellite Launch Center

Loading…

Ближайшие Пролёты (ближайшие 24 часа)

TLE

УстаревшееSource: Space-Track

Эпоха: Dec 28, 2025, 19:14 UTC

1 31063U 99025BFH 25362.80150404  .00643676  00000-0  13141-1 0  9991
2 31063  99.8321  13.6599 0008689  46.5833 129.5438 15.44037302988354

Отслеживайте FENGYUN 1C DEB в реальном времени с AllMySat

Download on the App Store